Погода в Ильинском

Россия / Костромская область     57°38′51″N   40°55′44″E
темп.,
°C
ветер,
м/с
пор.,
м/с
влажн.,
%
обл.,
%
осадки,
мм/ч
давл.,
гПа
погр.,
м
23 апреля, пт
пт2300:00+5ююв499245 0.0 1017172
03:00+4ююв49936 0.0 1017173
06:00+5ююв511925 0.0 1016244
09:00+11ююв7117447 0.0 1016596
12:00+15ю7105811 0.0 10151487
15:00+16ю8115475 1.3 10141816
18:00+14ю6116270 1.6 1014638
21:00+10ююв7157548 1.6 1014417
24 апреля, сб
сб2400:00+8ююв613855 0.1 1013341
03:00+7юв5128817 0.3 1011314
06:00+7юв6148313 0.1 1009388
09:00+12юв8146993 0.3 1007894
12:00+14юв9126088 1.1 10051619
15:00+13юв81168100 3.9 10041518
18:00+9ю3992100 7.9 1003700
21:00+7з1796100 16.4 1002631
25 апреля, вс
вс2500:00+7вюв2795100 8.4 999749
03:00+2зсз6997100 13.6 998413
06:00+1зсз81497100 1.8 998566
09:00+1зсз81698100 6.1 1000787
12:00+2з91694100 2.1 10021169
15:00+3з71490100 3.3 10041363
18:00+4зсз61381100 0.4 10051211
21:00+2зюз3887100 0.4 1006268
26 апреля, пн
пн2600:00+2зюз51281100 0.1 1006426
03:00+1юз51186100 0.1 1007356
06:00+1юз5118895 0.0 1008421
09:00+5зюз69715 0.0 1008994
12:00+7зюз785498 0.3 10081953
15:00+8зюз684987 0.5 10082024
18:00+7юз475635 0.3 1008738
21:00+3юз357946 0.8 100896
27 апреля, вт
вт2700:00+2зюз338422 0.0 100852
03:000зюз22855 0.0 100833
06:00+1юз25845 0.0 1008166
09:00+5зюз34665 0.0 1007821
12:00+7зюз555197 0.6 10061884
15:00+8з5741100 1.3 10062360
18:00+7з47515 0.1 1005794
21:00+3юз226853 0.3 100622